DO6HN-6 Weather Reports


Display with metric or nautical units.
time (UTC)temp
F
wind
direction
speed
MPH
gust
MPH
rain 1hr
in
rain 24hr
in
rain mn
in
humidity
%
barometer
mb
20260506175958 61 0.0 0.0 0.00 0.00 0.00 8 983.9
20260506174753 61 0.0 0.0 0.00 0.00 0.00 8 983.8
20260506173318 62 0.0 0.0 0.00 0.00 0.00 8 983.8
20260506172118 60 0.0 0.0 0.00 0.00 0.00 9 983.8
20260506170913 60 0.0 0.0 0.00 0.00 0.00 9 983.8
20260506165438 59 0.0 0.0 0.00 0.00 0.00 9 983.8
20260506164102 58 0.0 0.0 0.00 0.00 0.00 9 983.9
20260506162738 59 0.0 0.0 0.00 0.00 0.00 9 983.9
20260506161253 59 0.0 0.0 0.00 0.00 0.00 9 983.9
20260506160048 60 0.0 0.0 0.00 0.00 0.00 9 983.9
20260506154608 62 0.0 0.0 0.00 0.00 0.00 8 983.8
20260506153128 59 0.0 0.0 0.00 0.00 0.00 9 983.8
20260506151658 61 0.0 0.0 0.00 0.00 0.00 9 983.7
20260506150458 60 0.0 0.0 0.00 0.00 0.00 9 983.8
20260506145213 60 0.0 0.0 0.00 0.00 0.00 9 983.6
20260506144008 60 0.0 0.0 0.00 0.00 0.00 9 983.5
20260506142533 64 0.0 0.0 0.00 0.00 0.00 7 983.3
20260506141038 68 0.0 0.0 0.00 0.00 0.00 5 982.8
20260506135543 70 0.0 0.0 0.00 0.00 0.00 5 982.7
20260506134114 70 0.0 0.0 0.00 0.00 0.00 4 982.7
20260506132808 71 0.0 0.0 0.00 0.00 0.00 4 982.5
20260506131318 72 0.0 0.0 0.00 0.00 0.00 4 982.5
20260506125828 72 0.0 0.0 0.00 0.00 0.00 4 982.4
20260506124533 72 0.0 0.0 0.00 0.00 0.00 4 982.4
20260506123118 72 0.0 0.0 0.00 0.00 0.00 4 982.5
20260506121713 74 0.0 0.0 0.00 0.00 0.00 4 982.5
20260506120358 73 0.0 0.0 0.00 0.00 0.00 4 982.5
20260506114958 73 0.0 0.0 0.00 0.00 0.00 4 982.4
20260506113458 74 0.0 0.0 0.00 0.00 0.00 4 982.5
20260506112128 73 0.0 0.0 0.00 0.00 0.00 4 982.8
20260506110833 73 0.0 0.0 0.00 0.00 0.00 4 982.9
20260506105518 72 0.0 0.0 0.00 0.00 0.00 4 983.0
20260506104118 70 0.0 0.0 0.00 0.00 0.00 4 983.0
20260506102638 70 0.0 0.0 0.00 0.00 0.00 4 983.2
20260506101358 71 0.0 0.0 0.00 0.00 0.00 4 983.3
20260506095958 69 0.0 0.0 0.00 0.00 0.00 5 983.2
20260506094718 70 0.0 0.0 0.00 0.00 0.00 4 983.1
20260506093413 69 0.0 0.0 0.00 0.00 0.00 5 983.2
20260506092028 67 0.0 0.0 0.00 0.00 0.00 5 983.1
20260506090742 68 0.0 0.0 0.00 0.00 0.00 5 983.1
20260506085343 65 0.0 0.0 0.00 0.00 0.00 5 983.3
20260506084119 65 0.0 0.0 0.00 0.00 0.00 5 983.4
20260506082807 67 0.0 0.0 0.00 0.00 0.00 5 983.4
20260506081433 66 0.0 0.0 0.00 0.00 0.00 5 983.3
20260506073248 64 0.0 0.0 0.00 0.00 0.00 5 983.0
20260506071838 65 0.0 0.0 0.00 0.00 0.00 6 983.1
20260506070602 64 0.0 0.0 0.00 0.00 0.00 6 983.1
20260506061318 64 0.0 0.0 0.00 0.00 0.00 6 983.3
20260506050418 63 0.0 0.0 0.00 0.00 0.00 6 983.5
20260506045118 63 0.0 0.0 0.00 0.00 0.00 6 983.4
20260506043623 63 0.0 0.0 0.00 0.00 0.00 6 983.3
20260506042128 64 0.0 0.0 0.00 0.00 0.00 6 983.5
20260506040822 64 0.0 0.0 0.00 0.00 0.00 6 983.5
20260506035342 64 0.0 0.0 0.00 0.00 0.00 6 983.4
20260506033843 64 0.0 0.0 0.00 0.00 0.00 6 983.4
20260506032608 64 0.0 0.0 0.00 0.00 0.00 6 983.4
20260506031113 64 0.0 0.0 0.00 0.00 0.00 6 983.5
20260506025825 64 0.0 0.0 0.00 0.00 0.00 6 983.8
20260506024528 63 0.0 0.0 0.00 0.00 0.00 6 983.9
20260506023248 63 0.0 0.0 0.00 0.00 0.00 6 984.0
20260506022038 64 0.0 0.0 0.00 0.00 0.00 6 984.0
20260506020753 65 0.0 0.0 0.00 0.00 0.00 6 983.9
20260506015358 64 0.0 0.0 0.00 0.00 0.00 6 984.0
20260506014058 64 0.0 0.0 0.00 0.00 0.00 6 984.0
20260506012713 65 0.0 0.0 0.00 0.00 0.00 6 983.9
20260506011242 64 0.0 0.0 0.00 0.00 0.00 6 984.0
20260506005808 65 0.0 0.0 0.00 0.00 0.00 6 984.0
20260506004458 65 0.0 0.0 0.00 0.00 0.00 6 984.0
20260506003238 65 0.0 0.0 0.00 0.00 0.00 6 984.3
20260506001758 65 0.0 0.0 0.00 0.00 0.00 6 984.4
20260506000333 65 0.0 0.0 0.00 0.00 0.00 6 984.6
20260505234938 65 0.0 0.0 0.00 0.00 0.00 6 984.8
20260505233448 65 0.0 0.0 0.00 0.00 0.00 6 984.8
20260505232002 66 0.0 0.0 0.00 0.00 0.00 6 984.7
20260505230743 66 0.0 0.0 0.00 0.00 0.00 6 984.8
20260505225313 66 0.0 0.0 0.00 0.00 0.00 6 984.7
20260505224038 66 0.0 0.0 0.00 0.00 0.00 6 984.6
20260505222732 67 0.0 0.0 0.00 0.00 0.00 6 984.6
20260505221413 67 0.0 0.0 0.00 0.00 0.00 6 984.8
20260505220118 67 0.0 0.0 0.00 0.00 0.00 6 984.8
20260505214833 67 0.0 0.0 0.00 0.00 0.00 6 984.7
20260505213454 67 0.0 0.0 0.00 0.00 0.00 6 984.8
20260505212133 66 0.0 0.0 0.00 0.00 0.00 6 984.7
20260505210723 67 0.0 0.0 0.00 0.00 0.00 6 984.7
20260505205433 66 0.0 0.0 0.00 0.00 0.00 6 984.7
20260505204053 68 0.0 0.0 0.00 0.00 0.00 6 984.6
20260505202622 68 0.0 0.0 0.00 0.00 0.00 6 984.6
20260505201248 68 0.0 0.0 0.00 0.00 0.00 6 984.6
20260505195933 68 0.0 0.0 0.00 0.00 0.00 6 984.4
20260505194502 69 0.0 0.0 0.00 0.00 0.00 6 984.3
20260505193225 69 0.0 0.0 0.00 0.00 0.00 6 984.1
20260505192018 69 0.0 0.0 0.00 0.00 0.00 6 984.1
20260505190658 69 0.0 0.0 0.00 0.00 0.00 6 984.0
20260505185305 69 0.0 0.0 0.00 0.00 0.00 6 984.0
20260505183902 69 0.0 0.0 0.00 0.00 0.00 6 984.0
20260505182408 69 0.0 0.0 0.00 0.00 0.00 6 983.7
20260505181038 69 0.0 0.0 0.00 0.00 0.00 6 983.9